TimeMDT,TemperatureF,Dew PointF,Humidity,Sea Level PressureIn,VisibilityMPH,Wind Direction,Wind SpeedMPH,Gust SpeedMPH,PrecipitationIn,Events,Conditions,WindDirDegrees,DateUTC
12:10 AM,44.6,39.2,81,30.26,10.0,Calm,Calm,-,N/A,,Partly Cloudy,0,2013-09-01 06:10:00
12:30 AM,44.6,39.2,81,30.26,10.0,Calm,Calm,-,N/A,,Clear,0,2013-09-01 06:30:00
12:50 AM,42.8,37.4,81,30.26,10.0,Calm,Calm,-,N/A,,Mostly Cloudy,0,2013-09-01 06:50:00
1:10 AM,41.0,37.4,87,30.26,10.0,Calm,Calm,-,N/A,,Overcast,0,2013-09-01 07:10:00
1:30 AM,41.0,35.6,81,30.26,10.0,Calm,Calm,-,N/A,,Overcast,0,2013-09-01 07:30:00
1:50 AM,39.2,35.6,87,30.26,10.0,Calm,Calm,-,N/A,,Overcast,0,2013-09-01 07:50:00
2:10 AM,39.2,33.8,81,30.27,10.0,Calm,Calm,-,N/A,,Overcast,0,2013-09-01 08:10:00
2:30 AM,37.4,35.6,93,30.27,10.0,Calm,Calm,-,N/A,,Mostly Cloudy,0,2013-09-01 08:30:00
2:50 AM,37.4,37.4,100,30.27,10.0,Calm,Calm,-,N/A,,Overcast,0,2013-09-01 08:50:00
3:10 AM,37.4,37.4,100,30.27,10.0,Calm,Calm,-,N/A,,Overcast,0,2013-09-01 09:10:00
3:30 AM,35.6,35.6,100,30.27,10.0,Calm,Calm,-,N/A,,Scattered Clouds,0,2013-09-01 09:30:00
3:50 AM,35.6,35.6,100,30.27,10.0,Calm,Calm,-,N/A,,Mostly Cloudy,0,2013-09-01 09:50:00
4:10 AM,33.8,33.8,100,30.27,10.0,Calm,Calm,-,N/A,,Scattered Clouds,0,2013-09-01 10:10:00
4:30 AM,32.0,32.0,100,30.27,10.0,Calm,Calm,-,N/A,,Clear,0,2013-09-01 10:30:00
4:50 AM,33.8,33.8,100,30.27,10.0,Calm,Calm,-,N/A,,Clear,0,2013-09-01 10:50:00
5:10 AM,32.0,32.0,100,30.27,10.0,SSW,3.5,-,N/A,,Clear,210,2013-09-01 11:10:00
5:30 AM,32.0,32.0,100,30.27,10.0,South,3.5,-,N/A,,Clear,180,2013-09-01 11:30:00
5:50 AM,32.0,32.0,100,30.27,10.0,Calm,Calm,-,N/A,,Clear,0,2013-09-01 11:50:00
6:10 AM,32.0,32.0,100,30.28,10.0,Calm,Calm,-,N/A,,Clear,0,2013-09-01 12:10:00
6:30 AM,32.0,32.0,100,30.28,10.0,Calm,Calm,-,N/A,,Clear,0,2013-09-01 12:30:00
6:50 AM,32.0,32.0,100,30.28,10.0,Calm,Calm,-,N/A,,Clear,0,2013-09-01 12:50:00
7:10 AM,32.0,32.0,100,30.29,10.0,Calm,Calm,-,N/A,,Clear,0,2013-09-01 13:10:00
7:30 AM,32.0,32.0,100,30.29,10.0,Calm,Calm,-,N/A,,Clear,0,2013-09-01 13:30:00
7:50 AM,37.4,37.4,100,30.29,10.0,Calm,Calm,-,N/A,,Clear,0,2013-09-01 13:50:00
8:10 AM,41.0,39.2,93,30.29,10.0,Calm,Calm,-,N/A,,Clear,0,2013-09-01 14:10:00
8:30 AM,44.6,39.2,81,30.30,10.0,Calm,Calm,-,N/A,,Clear,0,2013-09-01 14:30:00
8:50 AM,48.2,48.2,100,30.30,10.0,Calm,Calm,-,N/A,,Clear,0,2013-09-01 14:50:00
9:10 AM,50.0,48.2,94,30.30,10.0,Calm,Calm,-,N/A,,Clear,0,2013-09-01 15:10:00
9:30 AM,53.6,48.2,82,30.30,10.0,Calm,Calm,-,N/A,,Clear,0,2013-09-01 15:30:00
9:50 AM,55.4,50.0,82,30.29,10.0,Calm,Calm,-,N/A,,Clear,0,2013-09-01 15:50:00
10:10 AM,57.2,53.6,88,30.29,10.0,Calm,Calm,-,N/A,,Clear,0,2013-09-01 16:10:00
10:30 AM,59.0,55.4,88,30.29,10.0,Calm,Calm,-,N/A,,Clear,0,2013-09-01 16:30:00
10:50 AM,62.6,57.2,82,30.28,10.0,Calm,Calm,-,N/A,,Clear,0,2013-09-01 16:50:00
11:10 AM,64.4,59.0,83,30.28,10.0,Calm,Calm,-,N/A,,Clear,0,2013-09-01 17:10:00
11:30 AM,68.0,62.6,83,30.27,10.0,SE,3.5,-,N/A,,Clear,140,2013-09-01 17:30:00
11:50 AM,69.8,66.2,88,30.27,10.0,Calm,Calm,-,N/A,,Clear,0,2013-09-01 17:50:00
12:10 PM,73.4,68.0,83,30.26,10.0,South,3.5,-,N/A,,Clear,170,2013-09-01 18:10:00
12:30 PM,75.2,69.8,83,30.25,10.0,ESE,3.5,-,N/A,,Clear,110,2013-09-01 18:30:00
12:50 PM,77.0,73.4,89,30.24,10.0,SW,4.6,-,N/A,,Clear,220,2013-09-01 18:50:00
1:10 PM,78.8,73.4,83,30.24,10.0,South,3.5,-,N/A,,Clear,190,2013-09-01 19:10:00
1:30 PM,80.6,75.2,84,30.23,10.0,North,9.2,-,N/A,,Clear,360,2013-09-01 19:30:00
1:50 PM,80.6,75.2,84,30.23,10.0,Calm,Calm,-,N/A,,Clear,0,2013-09-01 19:50:00
2:10 PM,80.6,75.2,84,30.22,10.0,ESE,3.5,-,N/A,,Clear,110,2013-09-01 20:10:00
2:30 PM,82.4,77.0,84,30.21,10.0,NE,10.4,-,N/A,,Clear,50,2013-09-01 20:30:00
2:50 PM,80.6,75.2,84,30.21,10.0,NNE,6.9,-,N/A,,Clear,20,2013-09-01 20:50:00
3:10 PM,82.4,77.0,84,30.20,10.0,NNW,4.6,-,N/A,,Clear,340,2013-09-01 21:10:00
3:30 PM,82.4,77.0,84,30.19,10.0,WNW,8.1,16.1,N/A,,Clear,300,2013-09-01 21:30:00
3:50 PM,82.4,77.0,84,30.18,10.0,SE,9.2,-,N/A,,Clear,130,2013-09-01 21:50:00
4:10 PM,82.4,77.0,84,30.18,10.0,NNE,3.5,-,N/A,,Clear,20,2013-09-01 22:10:00
4:30 PM,82.4,77.0,84,30.18,10.0,North,4.6,-,N/A,,Clear,350,2013-09-01 22:30:00
4:50 PM,82.4,77.0,84,30.18,10.0,North,4.6,-,N/A,,Clear,360,2013-09-01 22:50:00
5:10 PM,82.4,77.0,84,30.17,10.0,Calm,Calm,-,N/A,,Clear,0,2013-09-01 23:10:00
5:30 PM,80.6,75.2,84,30.16,10.0,Calm,Calm,-,N/A,,Clear,0,2013-09-01 23:30:00
5:50 PM,82.4,77.0,84,30.16,10.0,NNW,5.8,-,N/A,,Clear,330,2013-09-01 23:50:00
6:10 PM,82.4,77.0,84,30.16,10.0,West,6.9,-,N/A,,Clear,260,2013-09-02 00:10:00
6:30 PM,80.6,77.0,89,30.16,10.0,Calm,Calm,-,N/A,,Clear,0,2013-09-02 00:30:00
6:50 PM,82.4,77.0,84,30.15,10.0,Calm,Calm,-,N/A,,Clear,0,2013-09-02 00:50:00
7:10 PM,80.6,75.2,84,30.16,10.0,NNW,3.5,-,N/A,,Clear,330,2013-09-02 01:10:00
7:30 PM,77.0,73.4,89,30.16,10.0,WSW,3.5,-,N/A,,Clear,250,2013-09-02 01:30:00
7:50 PM,73.4,68.0,83,30.16,10.0,SW,4.6,-,N/A,,Clear,230,2013-09-02 01:50:00
8:10 PM,69.8,64.4,83,30.17,10.0,North,3.5,-,N/A,,Clear,350,2013-09-02 02:10:00
8:30 PM,66.2,62.6,88,30.18,10.0,SW,5.8,-,N/A,,Clear,220,2013-09-02 02:30:00
8:50 PM,68.0,64.4,88,30.19,10.0,Calm,Calm,-,N/A,,Clear,0,2013-09-02 02:50:00
9:10 PM,69.8,64.4,83,30.19,10.0,NNE,5.8,-,N/A,,Clear,20,2013-09-02 03:10:00
9:30 PM,64.4,60.8,88,30.19,10.0,SW,4.6,-,N/A,,Clear,220,2013-09-02 03:30:00
9:50 PM,62.6,57.2,82,30.20,10.0,SW,3.5,-,N/A,,Clear,230,2013-09-02 03:50:00
10:10 PM,59.0,55.4,88,30.20,10.0,Calm,Calm,-,N/A,,Clear,0,2013-09-02 04:10:00
10:30 PM,55.4,50.0,82,30.21,10.0,SSW,3.5,-,N/A,,Clear,210,2013-09-02 04:30:00
10:50 PM,51.8,48.2,88,30.21,10.0,Calm,Calm,-,N/A,,Clear,0,2013-09-02 04:50:00
11:10 PM,51.8,46.4,82,30.21,10.0,Calm,Calm,-,N/A,,Clear,0,2013-09-02 05:10:00
11:30 PM,53.6,48.2,82,30.21,10.0,Calm,Calm,-,N/A,,Clear,0,2013-09-02 05:30:00
11:50 PM,48.2,44.6,87,30.21,10.0,Calm,Calm,-,N/A,,Clear,0,2013-09-02 05:50:00